sat.trackr.live / text

‹ back to catalog

STARLINK-5302

NORAD 56556 · 2023-065BF

PAYLOAD ACTIVE UNKNOWN

§ Identity

Operator
Country
US
Launch date
2023-05-14
Launch site
AFETR
Launch vehicle
Mass (kg)
RCS (m²)

Purposes: comms

External: N2YO · Heavens-Above · Gunter

§ Orbital elements

Epoch: 2026-05-25T01:27:32.961024Z

Period
94.27 min
Inclination
43.0025°
Eccentricity
0.0001316
Mean motion
15.27576164 rev/d
Perigee alt
482.2 km
Apogee alt
484.0 km
Semi-major
6,861.2 km
B*
2.0441e-5
RAAN
152.1458°
Arg perigee
310.9059°
Mean anomaly
49.1679°
Rev number
16,815

§ Raw data

STARLINK-53021 56556U 23065BF  26145.06079816  .00000300  00000+0  20441-4 0  99952 56556  43.0025 152.1458 0001316 310.9059  49.1679 15.27576164168158

JSON: /api/v1/satellites/56556 · /tle

For live sub-satellite position, see the globe view (requires WebGL).

§ Visibility from observer

Set your observer location to see the next 7 days of passes ≥ 10°. The values pass through the URL so the page stays shareable.

No JS? Fill the form by hand. The geolocation button needs JavaScript.